Content
SEND FEEDBACK

Daily
Averages
Monthly
Summary
United States of America

NOBLESVILLE, INDIANA


Home > North America > United States > Indiana
Elevation: 778 feet     Latitude: 40 03N     Longitude: 086 01W

WEATHER
 
SELECT A DAY
Number of Records: 158,359;   Date Range: 4/11/08 - 10/20/14
 
SHARE

PRINT THIS DATA

[ ← Previous Day ]
WEATHER ALMANAC - FEBRUARY 13, 2013
[ Next Day → ]
[ °C ]   °F
Weather ElementAverageHighLow
Temperature33.8 °F43.7 °F (4:15 pm)27.5 °F (4:15 am)
Dewpoint25 °F28.8 °F (11:55 pm)22.8 °F (2:35 pm)
Humidity71.4 %86 % (12:35 am)49 % (2:35 pm)
Barometer29.84 in29.92 in (12:35 am)29.77 in (2:55 pm)
Wind Speed4.7 mph12.7 mph (10:55 pm)
Wind Gust17.3 mph (11:55 pm)
Weather ElementAverage
Visibility8.4 mi
Wind DirectionSE (135.9 °)

Weather ElementTotal
Precipitation---
Heating Degree Days29.4 (Base 65)
Averaged from 70 records on February 13, 2013
WEATHER CONDITIONS BREAKOUT
WIND DIRECTION BREAKOUT
WEATHER BY HOUR - FEBRUARY 13, 2013
[ °C ]   °F
Local TimeTemperatureDewpointHumidityBarometerVisibilityWind DirectionWind SpeedGust SpeedPrecipitationEventsConditions
12:35 AM28.2 °F24.4 °F86 %29.92 in5.0 miCalmOvercast
12:55 AM28.2 °F24.6 °F86 %29.92 in5.0 miCalmOvercast
1:15 AM28.2 °F24.4 °F86 %29.92 in5.0 miCalmMostly Cloudy
1:35 AM28.4 °F24.6 °F86 %29.90 in5.0 miNorth (10°)3.5 mphMostly Cloudy
1:55 AM28.4 °F24.8 °F86 %29.91 in5.0 miNorth (10°)4.6 mphScattered Clouds
2:15 AM28.8 °F24.8 °F85 %29.91 in7.0 miNorth (10°)4.6 mphMostly Cloudy
2:35 AM28.9 °F24.8 °F84 %29.91 in7.0 miNorth (360°)3.5 mphOvercast
2:55 AM28.6 °F24.4 °F84 %29.91 in7.0 miNorth (360°)4.6 mphOvercast
3:15 AM28.8 °F24.3 °F83 %29.90 in10.0 miNorth (10°)3.5 mphOvercast
3:35 AM28.4 °F23.9 °F83 %29.90 in10.0 miCalmOvercast
3:55 AM28.2 °F23.9 °F84 %29.89 in10.0 miCalmMostly Cloudy
4:15 AM27.5 °F23.7 °F86 %29.88 in7.0 miCalmClear
4:35 AM27.5 °F23.7 °F86 %29.88 in7.0 miCalmClear
4:55 AM27.5 °F23.7 °F86 %29.87 in10.0 miCalmScattered Clouds
5:15 AM27.9 °F23.9 °F85 %29.86 in7.0 miCalmOvercast
5:35 AM27.9 °F23.9 °F85 %29.85 in7.0 miNorth (10°)3.5 mphMostly Cloudy
5:55 AM28.0 °F23.9 °F84 %29.85 in10.0 miCalmMostly Cloudy
6:15 AM28.2 °F23.9 °F84 %29.84 in7.0 miCalmOvercast
6:35 AM28.2 °F23.9 °F84 %29.84 in7.0 miCalmScattered Clouds
7:15 AM28.4 °F24.3 °F84 %29.83 in7.0 miNNE (20°)3.5 mphOvercast
7:35 AM28.2 °F23.9 °F84 %29.81 in7.0 miNorth (10°)4.6 mphMostly Cloudy
7:55 AM28.2 °F23.7 °F83 %29.84 in7.0 miCalmScattered Clouds
8:15 AM28.4 °F23.5 °F82 %29.84 in7.0 miCalmClear
8:35 AM28.4 °F23.5 °F82 %29.85 in7.0 miCalmClear
8:55 AM28.4 °F23.5 °F82 %29.85 in7.0 miCalmClear
9:15 AM28.4 °F23.4 °F81 %29.86 in7.0 miCalmClear
9:35 AM28.9 °F23.4 °F80 %29.85 in7.0 miCalmClear
9:55 AM29.3 °F23.9 °F80 %29.85 in7.0 miNNW (330°)3.5 mphClear
10:15 AM29.3 °F23.5 °F79 %29.85 in10.0 miNNW (330°)3.5 mphClear
10:35 AM29.8 °F23.5 °F77 %29.85 in10.0 miCalmClear
10:55 AM30.2 °F23.0 °F75 %29.85 in10.0 miCalmClear
11:15 AM30.9 °F23.0 °F72 %29.85 in7.0 miCalmClear
11:35 AM31.5 °F23.0 °F71 %29.85 in7.0 miCalmClear
11:55 AM32.0 °F23.5 °F71 %29.84 in7.0 miCalmClear
12:15 PM32.9 °F23.9 °F69 %29.84 in7.0 miCalmClear
12:35 PM33.8 °F24.8 °F70 %29.83 in7.0 miWest (260°)3.5 mphClear
12:55 PM34.2 °F24.6 °F68 %29.82 in10.0 miWest (260°)3.5 mphClear
1:15 PM35.6 °F25.0 °F65 %29.81 in7.0 miWSW (250°)5.8 mphClear
1:35 PM37.4 °F24.1 °F59 %29.80 in10.0 miSW (220°)4.6 mphClear
1:55 PM38.5 °F24.1 °F56 %29.79 in10.0 miWest (260°)4.6 mphClear
2:15 PM39.2 °F23.9 °F54 %29.79 in10.0 miSW (220°)3.5 mphClear
2:35 PM40.5 °F22.8 °F49 %29.78 in10.0 miWSW (240°)4.6 mphClear
2:55 PM41.9 °F25.2 °F52 %29.77 in10.0 miWest (260°)4.6 mphClear
3:15 PM42.1 °F26.4 °F54 %29.77 in7.0 miWSW (250°)8.1 mphClear
3:35 PM42.4 °F27.0 °F54 %29.77 in10.0 miWest (270°)9.2 mph16.1 mphClear
3:55 PM43.2 °F26.2 °F51 %29.77 in10.0 miWSW (240°)10.4 mphClear
4:15 PM43.7 °F26.4 °F51 %29.77 in10.0 miWSW (250°)8.1 mphClear
4:35 PM43.7 °F26.4 °F51 %29.77 in10.0 miWSW (240°)9.2 mphClear
4:55 PM43.7 °F27.0 °F52 %29.77 in10.0 miWSW (240°)10.4 mphClear
5:15 PM43.3 °F26.8 °F52 %29.78 in10.0 miWSW (250°)9.2 mphClear
5:35 PM42.8 °F27.3 °F54 %29.78 in10.0 miWSW (240°)5.8 mphClear
5:55 PM42.1 °F27.0 °F55 %29.79 in7.0 miWSW (250°)11.5 mphClear
6:15 PM41.0 °F26.4 °F56 %29.79 in10.0 miWSW (250°)8.1 mphClear
6:35 PM39.4 °F26.8 °F61 %29.79 in10.0 miWSW (240°)5.8 mphClear
6:55 PM37.6 °F26.8 °F65 %29.80 in10.0 miSW (230°)6.9 mphClear
7:15 PM36.5 °F26.6 °F67 %29.81 in10.0 miSW (220°)5.8 mphClear
7:35 PM36.5 °F26.2 °F66 %29.81 in10.0 miSSW (210°)8.1 mphClear
7:55 PM37.6 °F25.9 °F63 %29.81 in10.0 miSSW (210°)9.2 mphScattered Clouds
8:15 PM37.4 °F25.5 °F62 %29.82 in7.0 miSW (220°)9.2 mphClear
8:35 PM37.4 °F25.7 °F63 %29.82 in10.0 miSSW (210°)8.1 mphScattered Clouds
8:55 PM37.4 °F25.7 °F63 %29.82 in10.0 miSSW (210°)9.2 mphMostly Cloudy
9:15 PM37.0 °F25.9 °F64 %29.82 in10.0 miSSW (210°)9.2 mphMostly Cloudy
9:35 PM36.9 °F25.7 °F64 %29.83 in10.0 miSSW (200°)10.4 mphScattered Clouds
9:55 PM36.5 °F25.7 °F65 %29.83 in10.0 miSSW (200°)10.4 mph16.1 mphClear
10:15 PM36.5 °F26.1 °F66 %29.83 in10.0 miSSW (210°)11.5 mphClear
10:35 PM36.5 °F26.6 °F67 %29.83 in10.0 miSSW (200°)10.4 mphClear
10:55 PM36.1 °F27.3 °F70 %29.83 in7.0 miSSW (200°)12.7 mphClear
11:15 PM35.8 °F27.5 °F72 %29.83 in10.0 miSSW (210°)10.4 mphClear
11:35 PM35.6 °F28.2 °F75 %29.83 in10.0 miSSW (210°)12.7 mphClear
11:55 PM35.6 °F28.8 °F76 %29.83 in7.0 miSSW (210°)12.7 mph17.3 mphClear
Hourly data recorded from KTYQ, located miles away from Noblesville, Indiana







STORIES FROM OUR PARTNERS